Regional Weather Roundup
Issued by NWS Cleveland, OH

Home | Current Version | Previous Version | Text Only | Print | Product List | Glossary Off
Versions: 1 2 3 4 5 6 7 8 9 10 11 12 13 14 15 16 17 18 19 20 21 22 23 24 25 26 27 28 29 30 31 32 33 34 35 36 37 38 39 40 41 42 43 44 45 46 47 48 49 50

000
ASUS41 KCLE 251810
RWRCLE
OHIO REGIONAL WEATHER ROUNDUP
NATIONAL WEATHER SERVICE CLEVELAND, OH
200 PM EDT TUE APR 25 2017

NOTE: "FAIR" INDICATES FEW OR NO CLOUDS BELOW 12,000 FEET WITH NO
SIGNIFICANT WEATHER AND/OR OBSTRUCTIONS TO VISIBILITY.

OHZ001>008-015>018-024>027-034-035-043-044-251900-
   NORTHWEST OHIO

CITY           SKY/WX    TMP DP  RH WIND       PRES   REMARKS
DEFIANCE       SUNNY     68  52  56 S9        29.77F
FINDLAY        SUNNY     74  53  48 SE10      29.75F
TOLEDO EXPRESS SUNNY     69  53  56 E9        29.77F
TOLEDO EXEC    SUNNY     71  55  56 E8        29.78F
LIMA           SUNNY     73  54  51 S13G20    29.76F
$$

OHZ009>014-019>023-028>033-038-089-251900-
   NORTHEAST OHIO

CITY           SKY/WX    TMP DP  RH WIND       PRES   REMARKS
CLE-HOPKINS    MOSUNNY   72  52  49 S12       29.84F
CLE-LAKEFRONT  SUNNY     71  54  54 SE13      29.81F
CUY CO. ARPT   MOSUNNY   70  57  64 S12G23    29.84F
LORAIN-ELYRIA  SUNNY     71  52  50 SE15      29.81F
ASHTABULA      CLOUDY    70  57  63 VRB7      29.86F
AKRON-CANTON   CLOUDY    70  55  59 SE12      29.83F
WOOSTER        MOSUNNY   69  55  60 SE13      29.82F
MANSFIELD      SUNNY     72  53  51 E14       29.80F
YOUNGSTOWN     CLOUDY    67  53  61 E9        29.86F
$$

OHZ042-051>053-060>062-070>072-077>081-251900-
  SOUTHWEST OHIO

CITY           SKY/WX    TMP DP  RH WIND       PRES   REMARKS
CINC-COVINGTON PTSUNNY   71  56  58 CALM      29.75F
CINC-LUNKEN    MOSUNNY   73  60  63 S8        29.75F
HAMILTON       MOSUNNY   74  57  55 VRB6G18   29.76F
DAYTON         PTSUNNY   72  54  53 S9G17     29.76F
WRIGHT-PAT AFB SUNNY     74  55  51 S10       29.75F
DAYTON GENERAL SUNNY     72  56  57 SE8       29.75F
WILMINGTON     MOSUNNY   70  57  63 SE7       29.76F
$$

OHZ036-037-039>041-045>050-054>059-063>069-073>076-082>088-251900-
  CENTRAL AND SOUTHEAST OHIO

CITY           SKY/WX    TMP DP  RH WIND       PRES   REMARKS
COLUMBUS       MOSUNNY   73  54  51 SE3G17    29.77F
OSU AIRPORT    SUNNY     72  55  55 S7        29.77F
BOLTON FIELD   SUNNY     72  54  53 SE6       29.78F
RICKENBACK AFB MOSUNNY   72  55  53 SE8       29.76F
NEWARK         PTSUNNY   73  54  51 VRB7G16   29.77F
MARION         MOSUNNY   73  51  46 SE8       29.78F
LANCASTER      MOSUNNY   74  54  49 CALM      29.78F
ZANESVILLE     CLOUDY    69  54  58 E8        29.80F
NEW PHILLY     NOT AVBL
$$



USA.gov is the U.S. government's official web portal to all federal, state and local government web resources and services.